15min,AgWx,beryljct,423,30APR2020:00:00:00,54.3,12.91,51.8,51.8,51.5,53.3,50.1,71,76,65,0.921,42.5,43.0,41.8,2.148,0.2,60,11,2.1,-0.00031,-0.00048,60.2,58.1,19,0,.,.,13.54,0.00,0.00
15min,AgWx,beryljct,423,30APR2020:00:15:00,53.8,12.92,51.8,50.8,52.6,54.3,50.8,68,75,61,0.938,42.2,43.8,41.0,3.244,2.4,105,23,3.7,-0.00010,-0.00011,60.0,58.1,19,0,.,.,13.54,0.00,0.00
15min,AgWx,beryljct,423,30APR2020:00:30:00,53.6,12.89,53.9,54.5,54.1,55.9,50.8,63,74,56,0.870,41.6,42.9,40.2,4.034,3.8,165,17,5.3,0.00003,0.00007,59.8,58.1,19,0,.,.,13.54,0.00,0.00
15min,AgWx,beryljct,423,30APR2020:00:45:00,53.9,12.9,55.2,56.1,54.8,56.3,53.6,62,65,58,0.913,42.0,42.6,41.0,4.319,4.7,197,4.9,5.6,0.00009,0.00015,59.6,58.0,19,0,.,.,13.54,0.00,0.00
15min,AgWx,beryljct,423,30APR2020:01:00:00,54.5,12.89,56.6,56.0,56.6,57.8,55.3,57,63,51,0.907,41.4,43.1,39.8,3.88,4.5,192,10,6.1,0.00012,0.00019,59.4,58.0,19,0,.,.,13.54,0.00,0.00
15min,AgWx,beryljct,423,30APR2020:01:15:00,54.9,12.88,57.3,56.8,56.9,58.1,55.2,55,62,51,0.877,41.1,42.3,40.1,3.705,4.0,190,5.3,4.5,0.00009,0.00016,59.2,58.0,19,0,.,.,13.53,0.00,0.00
15min,AgWx,beryljct,423,30APR2020:01:30:00,55.2,12.88,59.4,59.2,57.1,59.6,55.2,55,64,46,0.811,41.2,43.2,38.7,3.223,3.4,192,11,4.4,0.00004,0.00010,59.0,57.9,19,0,.,.,13.54,0.00,0.00
15min,AgWx,beryljct,423,30APR2020:01:45:00,55.4,12.87,59.7,58.5,59.3,61.3,57.3,47,55,40,0.823,39.2,41.1,36.9,4.056,3.6,186,14,5.5,0.00012,0.00020,58.8,57.9,19,0,.,.,13.54,0.00,0.00
15min,AgWx,beryljct,423,30APR2020:02:00:00,55.2,12.86,52.4,54.6,55.3,58.5,53.0,59,66,48,0.845,41.1,42.6,39.1,4.341,3.2,215,60,4.5,0.00001,0.00005,58.7,57.8,19,0,.,.,13.54,0.00,0.00
15min,AgWx,beryljct,423,30APR2020:02:15:00,54.7,12.85,53.2,52.9,52.6,54.3,51.5,65,68,59,0.923,41.1,42.5,40.1,3.069,3.2,325,10,4.6,-0.00002,0.00000,58.6,57.8,19,0,.,.,13.54,0.00,0.00
15min,AgWx,beryljct,423,30APR2020:02:30:00,54.1,12.84,53.4,53.7,53.5,54.6,52.7,68,73,63,0.920,43.2,44.5,42.2,4.713,3.7,310,4.8,5.2,-0.00001,0.00002,58.4,57.7,19,0,.,.,13.54,0.00,0.00
15min,AgWx,beryljct,423,30APR2020:02:45:00,53.6,12.84,50.5,51.9,52.7,53.7,51.9,65,68,62,0.883,41.3,42.4,40.7,0,2.3,335,28,4.9,-0.00009,-0.00010,58.2,57.7,20,0,.,.,13.54,0.00,0.00
15min,AgWx,beryljct,423,30APR2020:03:00:00,53.1,12.84,51.8,52.7,52.4,53.4,51.6,66,70,62,0.918,41.5,42.8,40.3,2.368,1.2,271,12,3.0,-0.00020,-0.00027,58.1,57.6,19,0,.,.,13.54,0.00,0.00
15min,AgWx,beryljct,423,30APR2020:03:15:00,52.5,12.84,53.5,51.8,51.5,53.1,49.9,72,78,66,0.867,42.8,44.1,40.9,3.42,1.7,283,36,3.4,-0.00017,-0.00022,58.0,57.6,19,0,.,.,13.54,0.00,0.00
15min,AgWx,beryljct,423,30APR2020:03:30:00,51.8,12.83,50.0,51.6,51.9,53.2,50.6,66,71,60,0.877,41.0,41.7,39.8,2.565,1.6,286,41,3.9,-0.00016,-0.00021,57.8,57.5,19,0,.,.,13.54,0.00,0.00
15min,AgWx,beryljct,423,30APR2020:03:45:00,51.2,12.83,54.6,52.7,51.1,53.2,49.5,70,75,63,0.870,41.6,42.3,40.8,0,1.7,282,12,3.5,-0.00016,-0.00020,57.7,57.5,19,0,.,.,13.54,0.00,0.00
15min,AgWx,beryljct,423,30APR2020:04:00:00,51.1,12.82,53.5,52.9,54.5,55.7,52.4,57,64,54,0.847,39.6,40.9,39.1,5.239,3.0,140,35,5.5,-0.00000,0.00003,57.5,57.4,19,0,.,.,13.54,0.00,0.00
15min,AgWx,beryljct,423,30APR2020:04:15:00,51.0,12.82,49.9,49.4,50.8,53.1,49.1,69,76,61,0.886,41.0,41.8,39.9,3.486,3.7,176,19,5.5,-0.00001,0.00001,57.4,57.3,19,0,.,.,13.54,0.00,0.00
15min,AgWx,beryljct,423,30APR2020:04:30:00,50.7,12.82,48.4,49.2,49.4,49.9,48.3,73,78,70,0.868,41.2,42.2,40.5,2.543,1.8,130,47,4.5,-0.00015,-0.00019,57.3,57.3,19,0,.,.,13.54,0.00,0.00
15min,AgWx,beryljct,423,30APR2020:04:45:00,50.7,12.82,52.6,52.1,51.9,53.9,48.9,65,74,58,0.882,40.5,41.4,39.4,5.963,4.6,175,11,6.0,0.00005,0.00010,57.1,57.3,19,0,.,.,13.54,0.00,0.00
15min,AgWx,beryljct,423,30APR2020:05:00:00,51.3,12.8,54.0,55.9,55.5,56.9,52.1,55,66,50,0.825,39.4,41.3,38.4,4.604,5.1,187,5.0,5.9,0.00057,0.00099,57.0,57.2,19,0,.,.,13.53,0.00,0.00
15min,AgWx,beryljct,423,30APR2020:05:15:00,51.8,12.81,47.2,49.0,54.0,56.2,49.0,60,71,53,0.842,40.5,41.3,39.3,3.091,4.0,206,47,5.4,0.00040,0.00070,56.8,57.2,19,0,.,.,13.54,0.00,0.00
15min,AgWx,beryljct,423,30APR2020:05:30:00,51.2,12.81,48.0,47.7,47.5,48.8,47.0,77,80,72,0.887,40.8,41.6,40.0,1.535,1.8,312,18,3.6,0.00011,0.00018,56.7,57.1,19,0,.,.,13.53,0.00,0.00
15min,AgWx,beryljct,423,30APR2020:05:45:00,50.2,12.81,45.5,46.0,47.2,48.0,45.9,79,82,77,0.833,41.1,42.6,39.8,3.288,3.1,310,15,5.3,0.00016,0.00027,56.6,57.0,19,2,.,.,13.54,0.00,0.00
15min,AgWx,beryljct,423,30APR2020:06:00:00,49.5,12.81,47.8,47.2,46.4,47.2,45.8,79,80,79,0.869,40.3,40.9,39.7,4.976,4.5,329,5.1,5.3,0.00027,0.00043,56.5,57.0,19,15,.,.,13.54,0.00,0.00
15min,AgWx,beryljct,423,30APR2020:06:15:00,49.5,12.81,51.4,51.0,49.1,51.0,47.2,77,81,72,0.915,42.3,42.7,41.0,6.357,5.7,312,4.5,7.3,0.00050,0.00071,56.3,56.9,19,46,.,.,13.54,0.00,0.00
15min,AgWx,beryljct,423,30APR2020:06:30:00,50.2,12.83,50.2,50.1,50.6,51.1,50.0,74,76,72,0.932,42.8,43.2,42.4,4.341,4.5,323,3.9,6.2,0.00043,0.00064,56.2,56.9,19,31,.,.,13.54,0.00,0.00
15min,AgWx,beryljct,423,30APR2020:06:45:00,50.6,12.86,51.2,51.1,50.4,51.1,50.0,75,77,73,0.942,42.9,43.2,42.6,3.617,3.7,321,3.3,4.6,0.00046,0.00064,56.1,56.8,19,47,.,.,13.53,0.00,0.00
15min,AgWx,beryljct,423,30APR2020:07:00:00,51.1,12.91,52.0,51.8,51.5,51.9,50.9,72,75,70,0.963,42.9,43.6,42.2,4.713,3.9,336,4.5,4.8,0.00071,0.00092,56.0,56.8,19,86,.,.,13.53,0.00,0.00
15min,AgWx,beryljct,423,30APR2020:07:15:00,51.8,12.92,53.5,53.4,52.6,53.4,51.8,72,74,70,0.986,43.7,44.2,43.4,1.798,3.7,343,9.7,5.2,0.00090,0.00113,55.9,56.7,19,121,.,.,13.53,0.00,0.00
15min,AgWx,beryljct,423,30APR2020:07:30:00,52.7,13.04,55.0,54.3,53.8,54.3,53.4,69,74,65,0.973,44.0,45.4,42.5,1.973,2.0,9.1,7.9,3.1,0.00101,0.00119,55.8,56.7,19,154,.,.,13.53,0.00,0.00
15min,AgWx,beryljct,423,30APR2020:07:45:00,54.2,13.25,56.6,56.4,55.4,56.4,54.4,64,67,59,0.923,43.2,44.3,42.4,2.916,2.8,345,12,3.5,0.00178,0.00208,55.7,56.6,19,301,.,.,13.53,0.00,0.00
15min,AgWx,beryljct,423,30APR2020:08:00:00,56.1,13.37,57.4,57.3,56.9,57.3,56.4,60,65,57,0.933,43.2,45.6,41.8,2.718,2.1,348,27,3.5,0.00162,0.00188,55.7,56.6,19,252,.,.,13.53,0.00,0.00
15min,AgWx,beryljct,423,30APR2020:08:15:00,57.7,13.4,58.6,58.3,58.1,58.6,57.3,59,62,55,1.008,43.8,45.2,42.3,0,0.4,55,43,2.9,0.00153,0.00167,55.7,56.5,19,246,.,.,13.53,0.00,0.00
15min,AgWx,beryljct,423,30APR2020:08:30:00,59.4,14.31,60.2,60.3,59.3,60.3,58.3,58,61,54,1.049,44.5,46.4,43.2,1.425,0.2,71,6.1,1.6,0.00247,0.00266,55.7,56.4,19,423,.,.,13.53,0.00,0.00
15min,AgWx,beryljct,423,30APR2020:08:45:00,61.8,13.74,62.2,62.4,61.2,62.5,60.4,58,64,54,1.124,46.5,49.4,44.0,0.811,1.2,91,51,3.0,0.00233,0.00259,55.7,56.4,19,362,.,.,13.52,0.00,0.00
15min,AgWx,beryljct,423,30APR2020:09:00:00,63.2,14.23,62.4,62.5,62.2,62.5,61.9,62,66,59,1.226,49.0,51.1,47.6,1.403,1.0,125,11,2.8,0.00200,0.00221,55.8,56.4,19,302,.,.,13.52,0.00,0.00
15min,AgWx,beryljct,423,30APR2020:09:15:00,64.3,14.2,67.8,67.5,64.6,67.8,62.4,55,65,38,0.947,47.9,51.1,41.3,8.79,5.9,159,30,12.3,0.00241,0.00306,55.9,56.3,19,297,.,.,13.52,0.00,0.00
15min,AgWx,beryljct,423,30APR2020:09:30:00,65.7,14.18,68.7,68.7,68.2,69.0,67.6,39,42,34,0.952,42.4,44.2,39.4,7.475,10.1,190,8.2,14.6,0.00331,0.00463,56.0,56.3,19,318,.,.,13.52,0.00,0.00
15min,AgWx,beryljct,423,30APR2020:09:45:00,67.7,14.13,70.6,70.5,69.8,70.7,68.7,35,39,31,0.794,40.8,43.8,38.2,13.88,11.9,191,10,16.4,0.00451,0.00615,56.2,56.2,19,501,.,.,13.51,0.00,0.00
15min,AgWx,beryljct,423,30APR2020:10:00:00,69.5,14.11,69.8,70.0,70.4,70.9,69.7,32,35,29,0.785,38.9,41.5,36.1,12.71,13.8,187,8.5,18.4,0.00454,0.00645,56.4,56.2,19,432,.,.,13.51,0.00,0.00
15min,AgWx,beryljct,423,30APR2020:10:15:00,70.4,14.08,70.5,70.9,70.6,71.1,69.9,31,33,29,0.847,38.9,40.7,37.3,8.46,12.6,191,8.3,16.2,0.00471,0.00654,56.5,56.1,19,489,.,.,13.51,0.00,0.00
15min,AgWx,beryljct,423,30APR2020:10:30:00,71.4,14.06,71.3,71.8,71.6,72.0,70.8,32,36,29,0.805,40.1,42.9,37.3,9.67,11.2,204,9.4,15.1,0.00495,0.00667,56.7,56.1,19,553,.,.,13.51,0.00,0.00
15min,AgWx,beryljct,423,30APR2020:10:45:00,72.1,14.08,73.5,73.4,72.0,73.4,71.4,30,35,26,0.745,39.0,42.5,36.0,18.5,12.2,199,9.3,18.5,0.00511,0.00696,56.9,56.1,19,554,.,.,13.50,0.00,0.00
15min,AgWx,beryljct,423,30APR2020:11:00:00,73.5,14.01,72.5,73.0,73.7,74.2,72.8,28,31,25,0.760,38.2,40.9,36.2,18.52,14.3,198,9.4,18.7,0.00607,0.00831,57.1,56.1,19,666,.,.,13.50,0.00,0.00
15min,AgWx,beryljct,423,30APR2020:11:15:00,73.9,14.07,72.4,72.3,72.6,72.9,72.3,29,31,27,0.839,38.2,40.2,36.5,13.13,14.3,192,8.0,17.4,0.00503,0.00715,57.3,56.1,19,469,.,.,13.50,0.00,0.00
15min,AgWx,beryljct,423,30APR2020:11:30:00,74.0,13.63,72.6,72.5,72.6,73.2,72.3,30,34,27,0.766,39.4,42.6,36.9,17.67,13.0,186,9.7,19.4,0.00472,0.00666,57.5,56.0,19,440,.,.,13.50,0.00,0.00
15min,AgWx,beryljct,423,30APR2020:11:45:00,73.9,13.63,71.4,71.7,72.3,72.6,71.4,29,33,27,0.803,38.5,41.3,36.9,13.68,14.6,178,7.7,19.1,0.00467,0.00678,57.7,56.0,19,395,.,.,13.50,0.00,0.00
15min,AgWx,beryljct,423,30APR2020:12:00:00,73.6,13.63,72.6,72.6,72.2,72.7,71.4,30,34,28,0.783,39.2,41.6,37.5,21.05,15.3,179,9.2,21.5,0.00487,0.00700,57.9,56.0,19,438,.,.,13.51,0.00,0.00
15min,AgWx,beryljct,423,30APR2020:12:15:00,73.8,13.63,73.2,72.7,72.8,73.1,72.5,30,33,28,0.807,39.2,42.3,38.0,17.58,16.8,182,8.9,21.2,0.00550,0.00784,58.1,56.0,19,531,.,.,13.50,0.00,0.00
15min,AgWx,beryljct,423,30APR2020:12:30:00,74.5,13.6,74.5,74.6,73.9,75.0,72.7,30,32,28,0.826,40.5,42.3,38.3,14.97,15.5,185,10,20.3,0.00680,0.00914,58.2,56.1,19,830,.,.,13.50,0.00,0.00
15min,AgWx,beryljct,423,30APR2020:12:45:00,75.8,13.66,75.5,75.8,75.7,76.3,74.7,29,33,26,0.832,41.1,44.6,38.8,15.52,13.1,196,13,18.1,0.00780,0.01005,58.4,56.1,19,1011,.,.,13.50,0.00,0.00
15min,AgWx,beryljct,423,30APR2020:13:00:00,76.9,13.56,75.6,75.8,76.2,76.8,75.7,27,31,25,0.859,40.2,43.6,37.7,11.62,14.8,198,18,22.5,0.00782,0.01029,58.6,56.1,19,980,.,.,13.50,0.00,0.00
15min,AgWx,beryljct,423,30APR2020:13:15:00,77.6,13.57,76.7,77.1,76.4,77.1,75.8,27,29,24,0.820,40.2,42.2,37.7,21.53,16.4,209,17,21.7,0.00798,0.01061,58.8,56.1,19,988,.,.,13.50,0.01,0.00
15min,AgWx,beryljct,423,30APR2020:13:30:00,78.1,13.57,76.1,76.6,76.6,77.1,76.2,26,29,24,0.792,39.4,42.5,37.0,16.29,15.6,212,11,21.2,0.00788,0.01048,59.1,56.1,18,965,.,.,13.50,0.00,0.00
15min,AgWx,beryljct,423,30APR2020:13:45:00,78.3,13.61,76.3,76.8,76.5,76.8,76.2,26,29,24,0.812,39.0,41.6,36.8,18.3,17.2,215,9.4,22.7,0.00787,0.01062,59.5,56.1,19,946,.,.,13.50,0.00,0.00
15min,AgWx,beryljct,423,30APR2020:14:00:00,78.7,13.52,77.7,77.4,77.0,77.9,76.4,25,29,23,0.820,38.9,42.5,36.2,11.49,15.1,199,14,21.3,0.00769,0.01027,59.9,56.1,18,926,.,.,13.50,0.00,0.00
15min,AgWx,beryljct,423,30APR2020:14:15:00,79.0,13.5,76.7,77.2,77.3,78.0,76.6,24,27,21,0.804,37.7,41.3,34.8,11.07,17.6,205,12,23.4,0.00783,0.01071,60.2,56.2,18,904,.,.,13.50,0.00,0.00
15min,AgWx,beryljct,423,30APR2020:14:30:00,79.3,13.57,76.8,77.0,77.2,77.5,76.9,25,27,22,0.770,38.3,40.4,35.9,12.21,16.6,207,10,21.6,0.00757,0.01031,60.5,56.2,18,877,.,.,13.50,0.00,0.00
15min,AgWx,beryljct,423,30APR2020:14:45:00,79.5,13.49,77.2,77.4,77.6,78.1,76.9,24,26,21,0.800,37.8,40.4,35.1,13.22,16.4,197,13,23.7,0.00744,0.01019,60.9,56.2,18,846,.,.,13.50,0.00,0.00
15min,AgWx,beryljct,423,30APR2020:15:00:00,79.8,13.49,78.2,78.2,77.6,78.2,77.1,24,27,22,0.824,37.9,40.5,35.5,13.11,15.9,197,10,22.0,0.00722,0.00990,61.2,56.3,18,816,.,.,13.50,0.00,0.00
15min,AgWx,beryljct,423,30APR2020:15:15:00,80.1,13.49,77.3,77.3,77.7,78.3,77.3,24,28,22,0.782,38.4,42.5,35.5,15.98,16.1,206,10,21.4,0.00676,0.00944,61.5,56.3,18,732,.,.,13.50,0.00,0.00
15min,AgWx,beryljct,423,30APR2020:15:30:00,80.4,13.47,77.9,78.1,77.8,78.2,77.3,24,27,22,0.750,38.3,41.4,36.1,19.6,15.3,198,11,22.4,0.00673,0.00931,61.8,56.4,18,739,.,.,13.50,0.00,0.00
15min,AgWx,beryljct,423,30APR2020:15:45:00,80.6,13.47,77.6,78.0,78.0,78.3,77.5,23,26,21,0.820,37.7,40.2,35.1,17.89,15.3,201,12,22.5,0.00655,0.00916,62.1,56.4,18,700,.,.,13.50,0.00,0.00
15min,AgWx,beryljct,423,30APR2020:16:00:00,80.6,13.54,77.2,77.6,77.7,78.1,77.4,22,25,19,0.745,35.6,39.3,32.8,21.2,16.7,209,15,21.2,0.00644,0.00923,62.3,56.5,18,651,.,.,13.51,0.00,0.00
15min,AgWx,beryljct,423,30APR2020:16:15:00,80.5,13.47,77.3,77.8,77.5,78.1,77.1,22,24,20,0.727,35.6,38.2,33.9,17.36,15.7,207,12,21.7,0.00611,0.00877,62.5,56.5,18,615,.,.,13.50,0.00,0.00
15min,AgWx,beryljct,423,30APR2020:16:30:00,80.2,13.49,77.5,77.4,77.3,77.8,77.1,22,24,20,0.690,35.0,38.1,33.3,11.77,16.2,207,13,22.2,0.00589,0.00859,62.7,56.6,18,566,.,.,13.50,0.00,0.00
15min,AgWx,beryljct,423,30APR2020:16:45:00,80.0,13.46,77.4,77.5,77.5,77.8,77.3,21,24,20,0.695,35.0,37.5,33.2,16.55,15.7,194,11,21.2,0.00555,0.00818,62.8,56.7,18,515,.,.,13.50,0.00,0.00
15min,AgWx,beryljct,423,30APR2020:17:00:00,79.9,13.48,77.5,77.2,77.4,77.6,77.1,21,23,19,0.685,34.3,36.1,32.4,15.96,16.0,193,13,20.4,0.00532,0.00799,62.9,56.7,18,467,.,.,13.50,0.00,0.00
15min,AgWx,beryljct,423,30APR2020:17:15:00,79.6,13.47,77.0,77.1,77.2,77.4,76.9,21,23,20,0.661,34.7,36.6,33.0,11.86,14.8,195,11,20.4,0.00484,0.00734,63.0,56.8,18,414,.,.,13.50,0.00,0.00
15min,AgWx,beryljct,423,30APR2020:17:30:00,79.3,13.5,77.1,76.9,76.9,77.3,76.6,22,24,20,0.680,34.8,36.7,33.0,14.05,14.6,196,9.1,20.4,0.00447,0.00690,63.0,56.8,18,363,.,.,13.50,0.00,0.00
15min,AgWx,beryljct,423,30APR2020:17:45:00,78.8,13.5,76.7,76.2,76.7,77.0,76.2,22,24,20,0.684,34.8,37.0,32.8,15.96,13.3,196,12,19.2,0.00396,0.00621,63.0,56.9,18,309,.,.,13.51,0.00,0.00
15min,AgWx,beryljct,423,30APR2020:18:00:00,78.3,13.24,76.1,76.0,76.2,76.6,75.8,21,23,20,0.643,33.8,35.6,32.4,12.19,13.9,192,8.0,17.6,0.00373,0.00603,62.9,56.9,18,257,.,.,13.50,0.00,0.00
15min,AgWx,beryljct,423,30APR2020:18:15:00,77.6,13.17,74.7,75.1,75.5,76.2,74.9,22,25,20,0.670,34.4,36.3,32.5,12.87,12.4,189,9.2,16.0,0.00313,0.00518,62.8,57.0,18,206,.,.,13.51,0.00,0.00
15min,AgWx,beryljct,423,30APR2020:18:30:00,76.8,13.14,74.3,74.5,74.5,75.1,74.0,24,27,23,0.696,35.6,37.7,34.3,11.55,10.9,193,7.1,15.0,0.00151,0.00192,62.7,57.1,19,159,.,.,13.51,0.00,0.00
15min,AgWx,beryljct,423,30APR2020:18:45:00,75.9,13.09,72.7,72.7,73.6,74.8,72.3,25,28,22,0.712,36.0,37.4,33.5,9.91,9.9,196,8.8,16.4,0.00131,0.00169,62.6,57.1,18,114,.,.,13.51,0.00,0.00
15min,AgWx,beryljct,423,30APR2020:19:00:00,74.3,13.11,69.7,69.9,71.4,72.8,69.9,29,31,26,0.763,37.1,37.9,36.1,6.116,6.9,195,6.3,9.1,0.00088,0.00121,62.4,57.2,19,72,.,.,13.51,0.00,0.00
15min,AgWx,beryljct,423,30APR2020:19:15:00,72.4,13.08,67.4,67.4,69.1,69.9,67.4,30,33,29,0.745,36.7,37.8,35.6,6.182,6.6,194,5.4,8.9,0.00067,0.00093,62.2,57.2,19,20,.,.,13.51,0.01,0.00
15min,AgWx,beryljct,423,30APR2020:19:30:00,70.0,13.06,65.0,66.0,67.0,67.9,66.0,32,34,30,0.735,36.3,37.1,35.2,4.932,5.7,189,7.2,6.8,0.00051,0.00073,62.0,57.3,18,6,.,.,13.51,0.00,0.00
15min,AgWx,beryljct,423,30APR2020:19:45:00,67.9,13.04,64.9,64.7,66.0,67.1,64.7,32,35,30,0.724,35.6,36.9,34.6,6.357,5.7,184,6.9,6.9,0.00048,0.00069,61.8,57.3,18,1,.,.,13.52,0.00,0.00
15min,AgWx,beryljct,423,30APR2020:20:00:00,66.1,13.03,63.9,62.9,64.0,64.7,62.9,36,39,35,0.758,36.8,37.8,36.1,5.064,5.4,191,4.1,6.7,0.00039,0.00057,61.6,57.3,18,0,.,.,13.51,0.00,0.00
15min,AgWx,beryljct,423,30APR2020:20:15:00,64.6,13.03,64.1,63.8,63.9,64.7,62.8,36,39,33,0.730,36.3,37.5,35.2,4.932,5.2,188,6.4,6.8,0.00038,0.00056,61.4,57.3,18,0,.,.,13.52,0.01,0.00
15min,AgWx,beryljct,423,30APR2020:20:30:00,63.7,13.03,62.4,62.8,64.3,65.7,62.8,34,37,31,0.731,35.3,36.7,34.0,6.072,4.7,170,12,6.2,0.00034,0.00051,61.1,57.4,18,0,.,.,13.52,0.00,0.00
15min,AgWx,beryljct,423,30APR2020:20:45:00,62.8,13.01,57.7,58.4,62.0,63.2,58.4,38,46,35,0.772,36.1,37.9,35.2,7.037,6.0,162,6.4,8.1,0.00041,0.00058,60.9,57.4,18,0,.,.,13.52,0.00,0.00
15min,AgWx,beryljct,423,30APR2020:21:00:00,61.2,13.01,54.3,54.6,56.0,58.4,54.6,55,60,46,0.869,39.8,41.0,37.8,5.59,6.5,158,5.5,7.7,0.00025,0.00035,60.7,57.4,18,0,.,.,13.52,0.00,0.00
15min,AgWx,beryljct,423,30APR2020:21:15:00,59.3,13,55.9,55.7,55.2,55.9,54.3,57,61,55,0.844,40.4,41.1,40.0,4.362,4.6,150,5.5,6.0,0.00011,0.00018,60.5,57.4,18,0,.,.,13.53,0.01,0.00
15min,AgWx,beryljct,423,30APR2020:21:30:00,58.0,12.98,54.0,55.0,55.3,56.0,53.1,56,62,53,0.813,39.7,40.8,39.0,4.691,3.6,144,9.4,5.2,0.00006,0.00011,60.2,57.4,19,0,.,.,13.53,0.00,0.00
15min,AgWx,beryljct,423,30APR2020:21:45:00,57.0,12.97,53.4,53.6,54.4,56.2,52.0,58,66,52,0.857,39.8,40.9,38.8,3.113,4.4,158,17,6.0,0.00010,0.00016,60.0,57.5,18,0,.,.,13.53,0.01,0.00
15min,AgWx,beryljct,423,30APR2020:22:00:00,56.2,12.97,58.0,55.8,56.0,58.2,53.5,54,61,47,0.814,39.4,40.5,38.2,5.393,4.5,153,15,6.8,0.00014,0.00021,59.8,57.4,19,0,.,.,13.53,0.00,0.00
15min,AgWx,beryljct,423,30APR2020:22:15:00,58.2,12.97,69.4,68.2,65.4,68.2,56.0,35,53,30,0.715,36.7,39.2,35.9,13.22,10.4,198,10,14.5,0.00079,0.00101,59.5,57.4,19,0,.,.,13.53,0.00,0.00
15min,AgWx,beryljct,423,30APR2020:22:30:00,61.7,12.96,69.4,69.3,69.0,69.6,68.3,29,30,28,0.701,35.7,36.5,35.1,11.64,12.6,200,8.6,17.1,0.00106,0.00134,59.3,57.4,18,0,.,.,13.53,0.00,0.00
15min,AgWx,bigpiney,439,30APR2020:00:00:00,44.9,12.68,37.7,37.5,39.2,41.3,37.5,69,72,64,0.549,29.8,30.5,28.9,4.231,4.4,188,9.5,5.9,0.00005,0.00008,38.3,32.0,27,0,0,0.0,6.28,0.00,0.00
15min,AgWx,bigpiney,439,30APR2020:00:15:00,44.0,12.67,36.7,37.0,37.9,38.8,37.0,73,76,70,0.565,29.9,30.5,29.3,2.433,3.8,219,22,7.0,0.00001,0.00003,38.1,31.9,27,0,0,0.0,6.28,0.00,0.00
15min,AgWx,bigpiney,439,30APR2020:00:30:00,43.3,12.67,37.7,37.2,37.4,37.8,36.7,75,78,73,0.589,30.3,31.1,29.8,2.455,2.5,303,39,4.7,-0.00004,-0.00005,38.1,31.9,28,0,0,0.0,6.28,0.00,0.00
15min,AgWx,bigpiney,439,30APR2020:00:45:00,42.8,12.66,37.9,37.7,37.3,38.0,36.4,79,81,77,0.613,31.4,32.1,30.8,2.828,4.1,294,14,6.1,-0.00001,0.00000,38.0,31.9,28,0,0,0.0,6.28,0.00,0.00
15min,AgWx,bigpiney,439,30APR2020:01:00:00,42.5,12.65,42.2,42.2,39.8,42.3,37.7,74,80,67,0.610,32.2,32.4,32.0,2.477,4.4,303,13,6.0,0.00002,0.00004,37.9,31.9,28,0,0,0.0,6.28,0.00,0.00
15min,AgWx,bigpiney,439,30APR2020:01:15:00,42.5,12.64,40.4,40.5,40.9,42.5,40.0,71,73,66,0.617,32.1,32.4,31.8,1.074,1.6,354,11,3.3,-0.00008,-0.00009,37.8,31.9,28,0,0,0.0,6.28,0.00,0.00
15min,AgWx,bigpiney,439,30APR2020:01:30:00,42.6,12.63,38.5,38.7,40.0,40.6,38.7,73,78,71,0.618,32.1,32.3,31.8,1.535,3.2,338,18,4.4,-0.00001,0.00000,37.7,31.9,29,0,0,0.0,6.28,0.00,0.00
15min,AgWx,bigpiney,439,30APR2020:01:45:00,42.5,12.61,41.0,40.5,39.1,40.5,38.2,76,79,72,0.624,32.3,32.7,31.8,5.283,2.9,271,40,5.6,-0.00003,-0.00003,37.6,31.9,29,0,0,0.0,6.28,0.00,0.00
15min,AgWx,bigpiney,439,30APR2020:02:00:00,42.7,12.62,40.6,41.0,40.5,41.7,39.3,73,77,68,0.610,32.4,33.3,31.7,3.266,2.9,222,18,6.7,-0.00002,-0.00001,37.5,31.9,29,0,0,0.0,6.28,0.00,0.00
15min,AgWx,bigpiney,439,30APR2020:02:15:00,43.0,12.61,43.3,44.8,41.8,44.8,40.8,70,78,58,0.603,32.7,34.5,30.9,6.555,2.2,250,33,6.6,-0.00004,-0.00004,37.4,31.9,30,0,0,0.0,6.28,0.00,0.00
15min,AgWx,bigpiney,439,30APR2020:02:30:00,43.6,12.59,48.4,47.2,45.5,47.2,44.0,59,65,53,0.584,32.1,33.3,30.4,6.511,2.2,246,41,6.9,-0.00001,0.00001,37.3,31.9,30,0,0,0.0,6.28,0.00,0.00
15min,AgWx,bigpiney,439,30APR2020:02:45:00,44.7,12.59,49.3,48.7,47.7,50.7,46.2,58,62,53,0.693,33.6,36.3,30.9,4.012,5.0,31,55,10.5,0.00016,0.00022,37.2,32.0,31,0,0,0.0,6.28,0.00,0.00
15min,AgWx,bigpiney,439,30APR2020:03:00:00,45.7,12.58,52.1,51.9,48.2,51.9,45.9,60,64,54,0.711,34.8,36.5,33.4,5.108,6.8,109,19,13.0,0.00021,0.00028,37.1,31.9,31,0,0,0.0,6.28,0.00,0.00
15min,AgWx,bigpiney,439,30APR2020:03:15:00,47.0,12.57,45.6,46.4,50.1,52.8,46.4,62,68,54,0.728,37.6,38.9,35.7,5.261,3.7,109,53,8.1,0.00008,0.00013,37.0,31.9,31,0,0,0.0,6.28,0.00,0.00
15min,AgWx,bigpiney,439,30APR2020:03:30:00,47.9,12.56,48.4,49.5,48.4,51.2,46.2,65,69,59,0.759,37.1,37.7,36.5,2.543,4.3,111,42,8.8,0.00009,0.00013,36.9,31.9,32,0,0,0.0,6.28,0.00,0.00
15min,AgWx,bigpiney,439,30APR2020:03:45:00,48.6,12.56,49.0,49.9,50.3,52.0,48.6,63,65,60,0.793,38.1,38.6,37.4,5.634,2.4,240,53,6.2,-0.00001,0.00001,36.8,31.9,32,0,0,0.0,6.28,0.00,0.00
15min,AgWx,bigpiney,439,30APR2020:04:00:00,49.2,12.55,44.8,45.3,49.0,52.2,45.3,65,68,60,0.688,37.8,39.7,34.9,9.67,5.1,157,34,11.3,0.00012,0.00017,36.8,31.9,32,0,0,0.0,6.28,0.00,0.00
15min,AgWx,bigpiney,439,30APR2020:04:15:00,49.2,12.54,43.6,43.8,45.0,45.8,43.8,70,74,67,0.716,36.0,36.7,35.0,5.897,8.4,116,7.2,13.2,0.00015,0.00020,36.7,32.0,33,0,0,0.0,6.28,0.00,0.00
15min,AgWx,bigpiney,439,30APR2020:04:30:00,48.7,12.53,44.2,43.6,43.4,43.8,43.2,74,75,73,0.704,35.8,36.2,35.6,1.907,4.3,117,8.3,7.2,0.00002,0.00005,36.6,31.9,33,0,0,0.0,6.28,0.00,0.00
15min,AgWx,bigpiney,439,30APR2020:04:45:00,48.2,12.53,44.4,44.6,44.2,44.7,43.7,72,73,71,0.709,35.7,36.0,35.3,1.951,0.8,86,48,2.3,-0.00015,-0.00021,36.5,32.0,33,0,0,0.0,6.28,0.00,0.00
15min,AgWx,bigpiney,439,30APR2020:05:00:00,47.8,12.5,44.7,44.4,44.4,45.0,43.4,72,76,71,0.724,36.1,36.4,35.7,2.631,2.8,340,46,5.0,-0.00002,-0.00002,36.4,31.9,33,0,0,0.0,6.28,0.00,0.00
15min,AgWx,bigpiney,439,30APR2020:05:15:00,47.6,12.5,44.5,44.2,44.2,44.6,43.9,75,76,73,0.751,36.7,37.2,36.2,3.464,4.1,334,8.4,5.7,0.00001,0.00004,36.4,31.9,34,0,0,0.0,6.28,0.00,0.00
15min,AgWx,bigpiney,439,30APR2020:05:30:00,47.4,12.49,43.9,44.2,44.2,44.6,43.5,77,79,76,0.754,37.4,37.8,37.2,0,1.6,196,88,3.8,0.00009,0.00015,36.3,31.9,34,1,0,0.0,6.28,0.00,0.00
15min,AgWx,bigpiney,439,30APR2020:05:45:00,47.3,12.49,44.4,44.4,45.3,46.0,44.1,75,79,72,0.789,37.8,38.5,37.3,3.223,2.2,297,34,3.4,0.00015,0.00024,36.2,32.0,34,5,0,0.0,6.28,0.00,0.00
15min,AgWx,bigpiney,439,30APR2020:06:00:00,47.3,12.51,45.1,45.5,44.6,45.7,44.0,79,81,74,0.774,38.4,39.0,38.0,3.003,2.9,145,43,4.4,0.00020,0.00030,36.2,31.9,34,16,0,0.0,6.28,0.00,0.00
15min,AgWx,bigpiney,439,30APR2020:06:15:00,47.3,12.51,44.5,44.4,44.8,45.4,44.4,78,79,75,0.791,38.2,38.5,37.9,2.302,2.8,163,30,5.4,0.00025,0.00036,36.1,31.9,34,35,0,0.0,6.28,0.00,0.00
15min,AgWx,bigpiney,439,30APR2020:06:30:00,47.3,12.53,46.0,45.5,44.6,45.5,44.1,81,83,79,0.829,39.3,39.8,38.5,1.907,2.0,211,15,3.7,0.00028,0.00036,36.0,31.9,34,41,0,0.0,6.28,0.00,0.00
15min,AgWx,bigpiney,439,30APR2020:06:45:00,47.5,12.53,46.2,45.9,45.6,45.9,45.4,82,82,79,0.838,40.3,40.7,39.5,3.705,2.6,244,7.6,3.8,0.00032,0.00041,36.0,32.0,35,40,0,0.0,6.28,0.00,0.00
15min,AgWx,bigpiney,439,30APR2020:07:00:00,47.8,12.61,47.5,47.2,46.5,47.3,46.0,80,81,78,0.874,40.7,41.1,40.1,3.529,3.8,240,6.1,4.6,0.00049,0.00063,35.9,32.0,35,69,0,0.0,6.28,0.00,0.00
15min,AgWx,bigpiney,439,30APR2020:07:15:00,48.4,13.01,50.5,50.0,48.7,50.0,47.2,78,81,73,0.899,42.0,42.7,41.1,0.636,2.5,267,13,3.8,0.00082,0.00096,35.9,31.9,35,168,0,0.0,6.28,0.00,0.00
15min,AgWx,bigpiney,439,30APR2020:07:30:00,49.8,13.5,52.3,52.0,51.2,52.1,50.0,71,76,67,0.899,42.3,43.2,41.3,0,1.3,303,32,3.7,0.00153,0.00169,35.8,31.9,35,339,0,0.0,6.28,0.00,0.00
15min,AgWx,bigpiney,439,30APR2020:07:45:00,51.6,13.34,53.7,53.7,52.9,53.8,52.1,67,70,64,0.936,42.1,43.7,41.3,2.455,1.1,262,36,3.5,0.00147,0.00163,35.8,31.9,35,287,0,0.0,6.28,0.00,0.00
15min,AgWx,bigpiney,439,30APR2020:08:00:00,53.2,13.41,54.2,54.2,53.8,54.2,53.6,63,67,60,0.858,41.4,43.0,40.1,5.305,4.0,288,15,6.2,0.00152,0.00186,35.8,31.9,35,252,0,0.0,6.28,0.00,0.00
15min,AgWx,bigpiney,439,30APR2020:08:15:00,54.5,13.74,54.9,54.9,54.5,55.0,54.2,61,64,58,0.892,41.3,42.5,40.2,2.061,3.3,306,14,5.3,0.00180,0.00214,35.7,31.9,36,310,0,0.0,6.28,0.00,0.00
15min,AgWx,bigpiney,439,30APR2020:08:30:00,56.3,14.46,56.0,55.8,55.9,56.4,55.0,59,64,56,0.843,41.7,44.2,40.2,1.14,1.9,299,40,5.1,0.00300,0.00334,35.7,31.9,36,558,0,0.0,6.28,0.00,0.00
15min,AgWx,bigpiney,439,30APR2020:08:45:00,58.8,14.26,56.5,57.1,56.5,57.3,55.8,56,59,53,0.864,41.0,42.5,39.6,3.135,1.3,1.1,58,3.6,0.00321,0.00353,35.7,31.9,36,588,0,0.0,6.28,0.00,0.00
15min,AgWx,bigpiney,439,30APR2020:09:00:00,61.0,14.25,57.8,57.5,57.4,58.3,56.8,54,61,50,0.838,40.8,44.1,38.9,0.395,1.6,41,63,3.8,0.00350,0.00387,35.6,32.0,36,624,0,0.0,6.28,0.00,0.00
15min,AgWx,bigpiney,439,30APR2020:09:15:00,63.0,14.22,58.4,57.9,58.1,58.6,57.6,52,58,49,0.810,40.7,43.9,39.1,0,2.2,83,32,6.1,0.00379,0.00423,35.6,31.9,36,664,0,0.0,6.28,0.00,0.00
15min,AgWx,bigpiney,439,30APR2020:09:30:00,64.6,14.19,59.0,59.2,58.7,59.2,58.1,51,55,48,0.830,40.5,43.0,39.2,0.592,1.5,88,40,5.2,0.00408,0.00448,35.6,31.9,36,707,0,0.0,6.28,0.00,0.00